Regional Weather Roundup
Issued by NWS Cleveland, OH

Home | Current Version | Previous Version | Text Only | Print | Product List | Glossary Off
Versions: 1 2 3 4 5 6 7 8 9 10 11 12 13 14 15 16 17 18 19 20 21 22 23 24 25 26 27 28 29 30 31 32 33 34 35 36 37 38 39 40 41 42 43 44 45 46 47 48 49 50

000
ASUS41 KCLE 030810
RWRCLE
OHIO REGIONAL WEATHER ROUNDUP
NATIONAL WEATHER SERVICE WILMINGTON, OH
300 AM EST TUE MAR 03 2015

NOTE: "FAIR" INDICATES FEW OR NO CLOUDS BELOW 12,000 FEET WITH NO
SIGNIFICANT WEATHER AND/OR OBSTRUCTIONS TO VISIBILITY.

OHZ001>008-015>018-024>027-034-035-043-044-030900-
   NORTHWEST OHIO

CITY           SKY/WX    TMP DP  RH WIND       PRES   REMARKS
DEFIANCE       CLOUDY    23  14  68 E5        30.27F WCI  17
FINDLAY        CLOUDY    21  13  71 E6        30.27F WCI  13
TOLEDO EXPRESS CLOUDY    21  14  74 CALM      30.28F
TOLEDO EXEC    CLOUDY    22  14  71 CALM      30.30F
LIMA           CLOUDY    22  13  68 E6        30.25F WCI  14
$$

OHZ009>014-019>023-028>033-038-089-030900-
   NORTHEAST OHIO

CITY           SKY/WX    TMP DP  RH WIND       PRES   REMARKS
CLE-HOPKINS    CLOUDY    22  12  65 S5        30.35F WCI  16
CLE-LAKEFRONT  CLOUDY    24  13  62 SE3       30.33F
CUY CO. ARPT   NOT AVBL
LORAIN-ELYRIA  CLOUDY    19  11  70 S6        30.31F WCI  11
ASHTABULA      CLOUDY    16   8  71 S6        30.33F WCI   7
AKRON-CANTON   CLOUDY    22  10  60 SE8       30.30F WCI  12
WOOSTER        CLOUDY    16  11  80 CALM      30.29F
MANSFIELD      CLOUDY    21  11  65 E10       30.24F WCI  10
YOUNGSTOWN     CLOUDY    20   9  62 SE7       30.30F WCI  11
$$

OHZ042-051>053-060>062-070>072-077>081-030900-
  SOUTHWEST OHIO

CITY           SKY/WX    TMP DP  RH WIND       PRES   REMARKS
CINC-COVINGTON CLOUDY    27  15  61 E8        30.22F WCI  19
CINC-LUNKEN    CLOUDY    26  16  65 N5        30.28F WCI  20
HAMILTON       CLOUDY    26  18  71 E3        30.27F
DAYTON         CLOUDY    24  15  68 S8        30.25S WCI  15
WRIGHT-PAT AFB CLOUDY    23  14  68 VRB2      30.26S
DAYTON GENERAL CLOUDY    25  15  66 SE6       30.24F WCI  18
WILMINGTON     CLOUDY    22  14  71 SE5       30.24F WCI  16
$$

OHZ036-037-039>041-045>050-054>059-063>069-073>076-082>088-030900-
  CENTRAL AND SOUTHEAST OHIO

CITY           SKY/WX    TMP DP  RH WIND       PRES   REMARKS
COLUMBUS       CLOUDY    24  12  60 E5        30.25F WCI  18
OSU AIRPORT    CLOUDY    23  13  65 E8        30.24F WCI  14
BOLTON FIELD   CLOUDY   N/A N/A N/A CALM      30.24F
RICKENBACK AFB CLOUDY    21  13  69 E8        30.24F WCI  12
NEWARK         CLOUDY    22  13  68 N5        30.26F WCI  16
MARION         CLOUDY    21  11  65 SE8       30.26F WCI  11
LANCASTER      CLOUDY    19  15  84 CALM      30.26F FOG
ZANESVILLE     CLOUDY    22  13  68 E5        30.26F WCI  16
NEW PHILLY     CLOUDY    20  12  71 E3        30.31F
$$


USA.gov is the U.S. government's official web portal to all federal, state and local government web resources and services.